Location: Marcé
(47.5801°N, 0.3280°W)
Time: 15:59:26
(UTC+01:00)

SR - Pass Details

Date: 02 December 2021
Orbit: 582 x 872 km, 66.7° (Epoch: 22 January)

Event Time Altitude Azimuth Distance (km) Brightness Sun altitude
Rises 10:53:13 0° 309° (NW) 2,833 ? 15.6°
Reaches altitude 10° 10:56:16 10° 286° (WNW) 1,953 ? 15.8°
Maximum altitude 10:58:41 15° 251° (WSW) 1,685 ? 16.0°
Drops below altitude 10° 11:01:11 10° 218° (SW) 2,011 ? 16.2°
Sets 11:04:25 0° 194° (SSW) 2,971 ? 16.4°
